• MPC Preparation (Info)

  • MPEC 2022-O95 : 2022 OV2

    The following Minor Planet Electronic Circular may be linked-to from your own Web pages, but must not otherwise be redistributed electronically.

    A form allowing access to any MPEC is at the bottom of this page.


    Read MPEC 2022-O94 Read MPEC 2022-O96


    M.P.E.C. 2022-O95                                 Issued 2022 July 29, 12:44 UT
    
         The Minor Planet Electronic Circulars contain information on unusual
             minor planets and routine data on comets.  They are published
        on behalf of Division F of the International Astronomical Union by the
              Minor Planet Center, Smithsonian Astrophysical Observatory,
                              Cambridge, MA 02138, U.S.A.
    
                 Prepared using the Tamkin Foundation Computer Network
    
                                  MPC@CFA.HARVARD.EDU
                URL https://www.minorplanetcenter.net/    ISSN 1523-6714
    
                                    2022 OV2                                 
    
    
    Observations:
         K22O02V* C2022 07 23.41563820 55 49.965-03 58 38.00         21.92wUEO095F52
         K22O02V  C2022 07 23.43864820 55 50.931-03 58 23.51         21.81wUEO095F52
         K22O02V  C2022 07 23.45019920 55 51.411-03 58 16.52         22.29wUEO095F52
         K22O02V KC2022 07 23.51276620 55 53.997-03 57 37.80         21.64GVEO095F52
         K22O02V ^C2022 07 26.36011820 58 24.095-03 29 50.12         21.42GVEO095568
         K22O02V ^C2022 07 26.36207720 58 24.177-03 29 49.03         21.46GVEO095568
         K22O02V ^C2022 07 26.36305520 58 24.216-03 29 48.51         21.49GVEO095568
         K22O02V  C2022 07 27.39930720 59 16.264-03 20 33.28         21.78GVEO095F52
         K22O02V  C2022 07 27.41141520 59 16.719-03 20 26.83         21.87GVEO095F52
         K22O02V  C2022 07 29.35175821 00 53.464-03 04 22.00         22.02wUEO095F52
         K22O02V  C2022 07 29.36382221 00 53.940-03 04 16.44         21.73wUEO095F52
         K22O02V  C2022 07 29.37597721 00 54.411-03 04 10.61         21.60wUEO095F52
         K22O02V  C2022 07 29.38813821 00 54.887-03 04 05.06         21.76wUEO095F52
    
    Observer details:
    568 Mauna Kea.  Observers R. Wainscoat, A. Acohido, T. Burdullis.  Measurers
        R. Weryk, R. Wainscoat.  3.6-m Canada-France-Hawaii Telescope + CCD.
    F52 Pan-STARRS 2, Haleakala.  Observers J. Bulger, T. Lowe, A. Schultz, I.
        Smith, K. Chambers, T. Dukes.  Measurers K. Chambers, S. Chastel, T. de
        Boer, J. Fairlamb, H. Gao, M. Huber, C.-C. Lin, E. Magnier, Y.
        Ramanjooloo, R. Wainscoat, R. Weryk.  1.8-m Ritchey-Chretien + CCD.
    
    Orbital elements:
    2022 OV2                                                 Earth MOID = 0.2824 AU
    Epoch 2022 Aug. 9.0 TT = JDT 2459800.5                  Veres                   
    M   1.85651              (2000.0)            P               Q                  
    n   0.30341930     Peri.   82.64998     +0.66647369     +0.74448445             
    a   2.1933465      Node   229.22390     -0.70291328     +0.60986651             
    e   0.4114579      Incl.    2.98563     -0.24844665     +0.27167212             
    P   3.25           H   23.21          G   0.15           U   8                  
    Residuals in seconds of arc
    220723 F52  0.1+  0.1-    220726 568  0.0   0.0     220729 F52  0.0   0.1-
    220723 F52  0.0   0.2+    220726 568  0.0   0.0     220729 F52  0.0   0.1+
    220723 F52  0.0   0.0     220727 F52  0.2+  0.0     220729 F52  0.1+  0.0
    220723 F52  0.3-  0.2-    220727 F52  0.1-  0.1+
    220726 568  0.0   0.0     220729 F52  0.1-  0.0
    
    Ephemeris:
    2022 OV2                 a,e,i = 2.19, 0.41, 3                   q = 1.2909
    Date    TT    R. A. (2000) Decl.     Delta      r    Elong.  Phase     V
    2022 06 29    20 28 48.1 -09 33 04   0.3567  1.3340   148.6    23.4    22.7
    ...
    2022 07 14    20 46 41.3 -05 51 39   0.3095  1.3052   155.9    18.5    22.2
    ...
    2022 07 22    20 54 32.7 -04 13 31   0.2942  1.2960   159.7    15.8    22.0
    ...
    2022 07 28    20 59 45.5 -03 15 12   0.2872  1.2921   162.3    13.8    21.8
    2022 07 29    21 00 35.0 -03 06 58   0.2864  1.2917   162.7    13.5    21.8
    2022 07 30    21 01 23.9 -02 59 10   0.2857  1.2914   163.1    13.2    21.8
    ...
    2022 08 05    21 06 08.0 -02 21 57   0.2840  1.2910   165.1    11.6    21.7
    ...
    2022 08 13    21 12 19.7 -01 57 12   0.2876  1.2946   166.5    10.6    21.7
    ...
    2022 08 28    21 24 50.4 -02 14 47   0.3135  1.3136   163.2    12.8    22.0
    
    M. P. C. Staff               (C) Copyright 2022 MPC           M.P.E.C. 2022-O95
    


    Read MPEC 2022-O94 Read MPEC 2022-O96


    MPEC number:

    Enter an MPEC number in one of the following forms:

    • 1997-B01 (the full form)
    • J97B01 (the packed version of the full form)
    • B01 (the abbreviated form)